Погода в Пичуге

Россия / Волгоградская область     48°59′01″N   44°42′51″E
темп.,
°C
ветер,
м/с
пор.,
м/с
влажн.,
%
обл.,
%
осадки,
мм/ч
давл.,
гПа
погр.,
м
15 апреля, чт
чт1500:00+12зсз2361100 0.0 101627
03:00+11сз4465100 0.0 101643
06:00+11ссз3466100 0.0 101544
09:00+14с4557100 0.0 1015220
12:00+16сз344659 0.0 1014638
15:00+17ссз2342100 0.0 1014947
18:00+16сз234996 0.0 101465
21:00+14зсз6106696 0.0 1015172
16 апреля, пт
пт1600:00+13зсз51069100 0.0 1015164
03:00+11зсз6107596 0.0 1016179
06:00+10сз6107673 0.3 1017183
09:00+14сз686097 0.4 1018355
12:00+16сз664999 0.0 1018727
15:00+17сз454299 0.0 10181082
18:00+16сз33450 0.0 101768
21:00+14зсз334891 0.0 101824
17 апреля, сб
сб1700:00+13зсз2251100 0.0 101811
03:00+11зсз4774100 0.0 101893
06:00+10зсз358197 0.0 101884
09:00+13з5671100 0.0 1019277
12:00+11зюз6982100 0.5 1021368
15:00+11юз247797 4.9 1021487
18:00+12в226950 0.1 102147
21:00+11ююз117353 0.1 102121
18 апреля, вс
вс1800:00+9з22745 0.0 102111
03:00+8зюз12765 0.0 102110
06:00+8ююз117513 0.0 102011
09:00+11ююз2358100 0.0 1020397
12:00+14ююз344562 0.0 10191001
15:00+15ююз3342100 0.0 10171102
18:00+14ююз234666 0.0 101770
21:00+11сз3358100 0.0 101831
19 апреля, пн
пн1900:00+10ссз335922 0.0 101722
03:00+10ссв336187 0.0 101629
06:00+10св3364100 0.0 101637
09:00+11всв236183 0.0 1016186
12:00+13ссв1155100 0.0 1016955
15:00+14с2250100 0.0 1015946
18:00+12ссв101270100 0.1 1016383
21:00+9св812856 0.3 1018423